Time,TemperatureF,DewpointF,PressureIn,WindDirection,WindDirectionDegrees,WindSpeedMPH,WindSpeedGustMPH,Humidity,HourlyPrecipIn,Conditions,Clouds,dailyrainin,SolarRadiationWatts/m^2,SoftwareType,DateUTC
2013-05-25 00:01:00,68.0,15.0,-100.00,West,274,5.0,15.0,13,0.00,,,0.00,0.000000,,2013-05-25 07:01:00,
2013-05-25 00:52:00,67.0,13.0,-100.00,WNW,284,9.0,17.0,12,0.00,,,0.00,0.000000,,2013-05-25 07:52:00,
2013-05-25 01:52:00,63.0,18.0,-100.00,SW,223,0.0,11.0,17,0.00,,,0.00,0.000000,,2013-05-25 08:52:00,
2013-05-25 02:01:00,63.0,18.0,-100.00,SW,223,0.0,11.0,17,0.00,,,0.00,0.000000,,2013-05-25 09:01:00,
2013-05-25 02:53:00,61.0,22.0,-100.00,SW,232,1.0,7.0,22,0.00,,,0.00,0.000000,,2013-05-25 09:53:00,
2013-05-25 03:02:00,61.0,22.0,-100.00,SW,232,1.0,7.0,22,0.00,,,0.00,0.000000,,2013-05-25 10:02:00,
2013-05-25 03:12:00,61.0,22.0,-100.00,SW,232,1.0,7.0,22,0.00,,,0.00,0.000000,,2013-05-25 10:12:00,
2013-05-25 03:22:00,61.0,22.0,-100.00,SW,232,1.0,7.0,22,0.00,,,0.00,0.000000,,2013-05-25 10:22:00,
2013-05-25 03:52:00,61.0,21.0,-100.00,South,185,4.0,18.0,21,0.00,,,0.00,0.000000,,2013-05-25 10:52:00,
2013-05-25 04:02:00,61.0,21.0,-100.00,South,185,4.0,18.0,21,0.00,,,0.00,0.000000,,2013-05-25 11:02:00,
2013-05-25 04:12:00,61.0,21.0,-100.00,South,185,4.0,18.0,21,0.00,,,0.00,0.000000,,2013-05-25 11:12:00,
2013-05-25 04:21:00,61.0,21.0,-100.00,South,185,4.0,18.0,21,0.00,,,0.00,0.000000,,2013-05-25 11:21:00,
2013-05-25 04:52:00,57.0,22.0,-100.00,South,172,1.0,11.0,25,0.00,,,0.00,0.000000,,2013-05-25 11:52:00,
2013-05-25 05:01:00,57.0,22.0,-100.00,South,172,1.0,11.0,25,0.00,,,0.00,0.000000,,2013-05-25 12:01:00,
2013-05-25 05:12:00,57.0,22.0,-100.00,South,172,1.0,11.0,25,0.00,,,0.00,0.000000,,2013-05-25 12:12:00,
2013-05-25 05:21:00,57.0,22.0,-100.00,South,172,1.0,11.0,25,0.00,,,0.00,0.000000,,2013-05-25 12:21:00,
2013-05-25 05:52:00,57.0,22.0,-100.00,South,180,0.0,11.0,25,0.00,,,0.00,0.000000,,2013-05-25 12:52:00,
2013-05-25 06:02:00,57.0,22.0,-100.00,South,180,0.0,11.0,25,0.00,,,0.00,0.000000,,2013-05-25 13:02:00,
2013-05-25 06:11:00,57.0,22.0,-100.00,South,180,0.0,11.0,25,0.00,,,0.00,0.000000,,2013-05-25 13:11:00,
2013-05-25 06:21:00,57.0,22.0,-100.00,South,180,0.0,11.0,25,0.00,,,0.00,0.000000,,2013-05-25 13:21:00,
2013-05-25 06:52:00,59.0,23.0,-100.00,West,260,1.0,5.0,25,0.00,,,0.00,43.000000,,2013-05-25 13:52:00,
2013-05-25 07:02:00,59.0,23.0,-100.00,West,260,1.0,5.0,25,0.00,,,0.00,43.000000,,2013-05-25 14:02:00,
2013-05-25 07:11:00,59.0,23.0,-100.00,West,260,1.0,5.0,25,0.00,,,0.00,43.000000,,2013-05-25 14:11:00,
2013-05-25 07:22:00,59.0,23.0,-100.00,West,260,1.0,5.0,25,0.00,,,0.00,43.000000,,2013-05-25 14:22:00,
2013-05-25 07:52:00,64.0,27.0,-100.00,SSE,164,1.0,9.0,25,0.00,,,0.00,281.000000,,2013-05-25 14:52:00,
2013-05-25 08:01:00,64.0,27.0,-100.00,SSE,164,1.0,9.0,25,0.00,,,0.00,281.000000,,2013-05-25 15:01:00,
2013-05-25 08:11:00,64.0,27.0,-100.00,SSE,164,1.0,9.0,25,0.00,,,0.00,281.000000,,2013-05-25 15:11:00,
2013-05-25 08:22:00,64.0,27.0,-100.00,SSE,164,1.0,9.0,25,0.00,,,0.00,281.000000,,2013-05-25 15:22:00,
2013-05-25 08:53:00,67.0,28.0,-100.00,SE,130,3.0,11.0,23,0.00,,,0.00,549.000000,,2013-05-25 15:53:00,
2013-05-25 09:03:00,67.0,28.0,-100.00,SE,130,3.0,11.0,23,0.00,,,0.00,549.000000,,2013-05-25 16:03:00,
2013-05-25 09:12:00,67.0,28.0,-100.00,SE,130,3.0,11.0,23,0.00,,,0.00,549.000000,,2013-05-25 16:12:00,
2013-05-25 09:22:00,67.0,28.0,-100.00,SE,130,3.0,11.0,23,0.00,,,0.00,549.000000,,2013-05-25 16:22:00,
2013-05-25 09:52:00,70.0,27.0,-100.00,SE,137,2.0,11.0,20,0.00,,,0.00,794.000000,,2013-05-25 16:52:00,
2013-05-25 10:02:00,70.0,27.0,-100.00,SE,137,2.0,11.0,20,0.00,,,0.00,794.000000,,2013-05-25 17:02:00,
2013-05-25 10:11:00,70.0,27.0,-100.00,SE,137,2.0,11.0,20,0.00,,,0.00,794.000000,,2013-05-25 17:11:00,
2013-05-25 10:22:00,70.0,27.0,-100.00,SE,137,2.0,11.0,20,0.00,,,0.00,794.000000,,2013-05-25 17:22:00,
2013-05-25 10:52:00,71.0,24.0,-100.00,SE,128,3.0,11.0,17,0.00,,,0.00,1002.000000,,2013-05-25 17:52:00,
2013-05-25 11:01:00,71.0,24.0,-100.00,SE,128,3.0,11.0,17,0.00,,,0.00,1002.000000,,2013-05-25 18:01:00,
2013-05-25 11:11:00,71.0,24.0,-100.00,SE,128,3.0,11.0,17,0.00,,,0.00,1002.000000,,2013-05-25 18:11:00,
2013-05-25 11:21:00,71.0,24.0,-100.00,SE,128,3.0,11.0,17,0.00,,,0.00,1002.000000,,2013-05-25 18:21:00,
2013-05-25 11:52:00,75.0,24.0,-100.00,ENE,68,4.0,10.0,15,0.00,,,0.00,1195.000000,,2013-05-25 18:52:00,
2013-05-25 12:01:00,75.0,24.0,-100.00,ENE,68,4.0,10.0,15,0.00,,,0.00,1195.000000,,2013-05-25 19:01:00,
2013-05-25 12:11:00,75.0,24.0,-100.00,ENE,68,4.0,10.0,15,0.00,,,0.00,1195.000000,,2013-05-25 19:11:00,
2013-05-25 12:21:00,75.0,24.0,-100.00,ENE,68,4.0,10.0,15,0.00,,,0.00,1195.000000,,2013-05-25 19:21:00,
2013-05-25 12:52:00,75.0,24.0,-100.00,ESE,116,5.0,11.0,15,0.00,,,0.00,1321.000000,,2013-05-25 19:52:00,
2013-05-25 13:02:00,75.0,24.0,-100.00,ESE,116,5.0,11.0,15,0.00,,,0.00,1321.000000,,2013-05-25 20:02:00,
2013-05-25 13:11:00,75.0,24.0,-100.00,ESE,116,5.0,11.0,15,0.00,,,0.00,1321.000000,,2013-05-25 20:11:00,
2013-05-25 13:21:00,75.0,24.0,-100.00,ESE,116,5.0,11.0,15,0.00,,,0.00,1321.000000,,2013-05-25 20:21:00,
2013-05-25 13:52:00,78.0,21.0,-100.00,ESE,111,6.0,13.0,12,0.00,,,0.00,1341.000000,,2013-05-25 20:52:00,
2013-05-25 14:02:00,78.0,21.0,-100.00,ESE,111,6.0,13.0,12,0.00,,,0.00,1341.000000,,2013-05-25 21:02:00,
2013-05-25 14:11:00,78.0,21.0,-100.00,ESE,111,6.0,13.0,12,0.00,,,0.00,1341.000000,,2013-05-25 21:11:00,
2013-05-25 14:21:00,78.0,21.0,-100.00,ESE,111,6.0,13.0,12,0.00,,,0.00,1341.000000,,2013-05-25 21:21:00,
2013-05-25 14:53:00,81.0,17.0,-100.00,SSE,151,12.0,23.0,9,0.00,,,0.00,1305.000000,,2013-05-25 21:53:00,
2013-05-25 15:03:00,81.0,17.0,-100.00,SSE,151,12.0,23.0,9,0.00,,,0.00,1305.000000,,2013-05-25 22:03:00,
2013-05-25 15:12:00,81.0,17.0,-100.00,SSE,151,12.0,23.0,9,0.00,,,0.00,1305.000000,,2013-05-25 22:12:00,
2013-05-25 15:22:00,81.0,17.0,-100.00,SSE,151,12.0,23.0,9,0.00,,,0.00,1305.000000,,2013-05-25 22:22:00,
2013-05-25 15:52:00,85.0,7.0,-100.00,SSW,210,11.0,32.0,5,0.00,,,0.00,1194.000000,,2013-05-25 22:52:00,
2013-05-25 16:52:00,77.0,18.0,-100.00,WSW,247,18.0,26.0,11,0.00,,,0.00,1015.000000,,2013-05-25 23:52:00,
2013-05-25 17:01:00,77.0,18.0,-100.00,WSW,247,18.0,26.0,11,0.00,,,0.00,1015.000000,,2013-05-26 00:01:00,
2013-05-25 17:11:00,77.0,18.0,-100.00,WSW,247,18.0,26.0,11,0.00,,,0.00,1015.000000,,2013-05-26 00:11:00,
2013-05-25 17:21:00,77.0,18.0,-100.00,WSW,247,18.0,26.0,11,0.00,,,0.00,1015.000000,,2013-05-26 00:21:00,
2013-05-25 17:52:00,75.0,17.0,-100.00,WSW,256,22.0,34.0,11,0.00,,,0.00,767.000000,,2013-05-26 00:52:00,
2013-05-25 18:01:00,75.0,17.0,-100.00,WSW,256,22.0,34.0,11,0.00,,,0.00,767.000000,,2013-05-26 01:01:00,
2013-05-25 18:11:00,75.0,17.0,-100.00,WSW,256,22.0,34.0,11,0.00,,,0.00,767.000000,,2013-05-26 01:11:00,
2013-05-25 18:21:00,75.0,17.0,-100.00,WSW,256,22.0,34.0,11,0.00,,,0.00,767.000000,,2013-05-26 01:21:00,
2013-05-25 18:52:00,74.0,20.0,-100.00,West,273,15.0,38.0,13,0.00,,,0.00,378.000000,,2013-05-26 01:52:00,
2013-05-25 19:02:00,74.0,20.0,-100.00,West,273,15.0,38.0,13,0.00,,,0.00,378.000000,,2013-05-26 02:02:00,
2013-05-25 19:11:00,74.0,20.0,-100.00,West,273,15.0,38.0,13,0.00,,,0.00,378.000000,,2013-05-26 02:11:00,
2013-05-25 19:21:00,74.0,20.0,-100.00,West,273,15.0,38.0,13,0.00,,,0.00,378.000000,,2013-05-26 02:21:00,
2013-05-25 19:52:00,69.0,19.0,-100.00,West,277,22.0,38.0,15,0.00,,,0.00,30.000000,,2013-05-26 02:52:00,
2013-05-25 20:01:00,69.0,19.0,-100.00,West,277,22.0,38.0,15,0.00,,,0.00,30.000000,,2013-05-26 03:01:00,
2013-05-25 20:11:00,69.0,19.0,-100.00,West,277,22.0,38.0,15,0.00,,,0.00,30.000000,,2013-05-26 03:11:00,
2013-05-25 20:21:00,69.0,19.0,-100.00,West,277,22.0,38.0,15,0.00,,,0.00,30.000000,,2013-05-26 03:21:00,
2013-05-25 20:53:00,71.0,16.0,-100.00,WNW,295,19.0,37.0,12,0.00,,,0.00,7.000000,,2013-05-26 03:53:00,
2013-05-25 21:02:00,71.0,16.0,-100.00,WNW,295,19.0,37.0,12,0.00,,,0.00,7.000000,,2013-05-26 04:02:00,
2013-05-25 21:12:00,71.0,16.0,-100.00,WNW,295,19.0,37.0,12,0.00,,,0.00,7.000000,,2013-05-26 04:12:00,
2013-05-25 21:23:00,71.0,16.0,-100.00,WNW,295,19.0,37.0,12,0.00,,,0.00,7.000000,,2013-05-26 04:23:00,
2013-05-25 21:52:00,69.0,14.0,-100.00,WNW,282,20.0,46.0,12,0.00,,,0.00,0.000000,,2013-05-26 04:52:00,
2013-05-25 22:52:00,69.0,10.0,-100.00,NW,309,19.0,46.0,10,0.00,,,0.00,0.000000,,2013-05-26 05:52:00,
2013-05-25 23:52:00,69.0,8.0,-100.00,NW,304,20.0,38.0,9,0.00,,,0.00,0.000000,,2013-05-26 06:52:00,